Sergeant Bluff, IA

9:14 PM CST on February 19, 2017 (GMT -0600)
Sioux Gateway

Weather History for KSUX - May, 2014

Change the Weather History Date:

Wednesday, May 14, 2014

  Actual Average Record
Temperature  
Mean Temperature 53 °F 60 °F  
Max Temperature 70 °F 72 °F 106 °F (2013)
Min Temperature 35 °F 48 °F 32 °F (1907)
Degree Days  
Heating Degree Days 12 6  
Month to date heating degree days 113 111  
Since 1 July heating degree days 7162 6763  
Cooling Degree Days 0 1  
Month to date cooling degree days 17 14  
Year to date cooling degree days 26 25  
Growing Degree Days 2 (Base 50)    
Moisture  
Dew Point 32 °F    
Average Humidity 56    
Maximum Humidity 89    
Minimum Humidity 22    
Precipitation  
Precipitation 0.00 in 0.12 in 1.69 in (1961)
Month to date precipitation 0.58 1.63  
Year to date precipitation 3.80 7.87  
Snow  
Snow 0.00 in 0.00 in 0.40 in (1907)
Month to date snowfall 0.0 0.2  
Since 1 July snowfall 23.8 35.0  
Snow Depth 0.00 in    
Sea Level Pressure  
Sea Level Pressure 30.22 in    
Wind  
Wind Speed 10 mph (North)    
Max Wind Speed 29 mph    
Max Gust Speed 36 mph    
Visibility 10 miles    
Events      
T = Trace of Precipitation, MM = Missing Value Source: NWS Daily Summary

Daily Weather History Graph

Daily Weather History Graph

Search for Another Location

Airport or City:

Trip Planner

Search our weather history database for the weather conditions in past years. The results will help you decide how hot, cold, wet, or windy it might be!

Date:

Astronomy

May. 14, 2014 Rise Set
Actual Time 6:04 AM CDT 8:39 PM CDT
Civil Twilight 5:32 AM CDT 9:11 PM CDT
Nautical Twilight 4:52 AM CDT 9:51 PM CDT
Astronomical Twilight 4:07 AM CDT 10:37 PM CDT
Moon 8:45 PM CDT (5/14) 6:05 AM CDT (5/14)
Length of Visible Light 15h 38m
Length of Day
14h 34m
Full, 100% of the Moon is Illuminated
May 14
Full
May 14
Full
May 21
Last Quarter
May 28
New
Jun 5
First Quarter

Hourly Weather History & Observations

Time (CDT) Temp. Windchill Dew Point Humidity Pressure Visibility Wind Dir Wind Speed Gust Speed Precip Events Conditions
12:52 AM 39.9 °F - 34.0 °F 79% 30.30 in 10.0 mi Calm Calm - N/A   Clear
1:52 AM 37.9 °F - 34.0 °F 86% 30.29 in 10.0 mi Calm Calm - N/A   Clear
2:52 AM 39.9 °F 37.8 °F 33.1 °F 77% 30.29 in 10.0 mi WNW 3.5 mph - N/A   Clear
3:52 AM 37.0 °F - 32.0 °F 82% 30.29 in 10.0 mi Calm Calm - N/A   Clear
4:52 AM 36.0 °F - 32.0 °F 86% 30.28 in 10.0 mi Calm Calm - N/A   Clear
5:52 AM 37.0 °F - 32.0 °F 82% 30.28 in 10.0 mi Calm Calm - N/A   Clear
6:52 AM 35.1 °F 31.0 °F 32.0 °F 89% 30.29 in 10.0 mi SE 4.6 mph - N/A   Clear
7:52 AM 41.0 °F 39.0 °F 36.0 °F 82% 30.28 in 10.0 mi ESE 3.5 mph - N/A   Clear
8:52 AM 48.0 °F - 37.9 °F 68% 30.26 in 10.0 mi Variable 3.5 mph - N/A   Clear
9:52 AM 55.4 °F - 37.4 °F 51% 30.25 in 10.0 mi Calm Calm - N/A   Clear
10:52 AM 61.0 °F - 36.0 °F 39% 30.24 in 10.0 mi North 8.1 mph - N/A   Clear
11:52 AM 64.0 °F - 30.0 °F 28% 30.22 in 10.0 mi North - - N/A   Clear
12:52 PM 66.0 °F - 28.9 °F 25% 30.19 in 10.0 mi North 12.7 mph - N/A   Clear
1:52 PM 66.9 °F - 30.0 °F 25% 30.16 in 10.0 mi Variable 4.6 mph - N/A   Scattered Clouds
2:52 PM 68.0 °F - 28.0 °F 22% 30.14 in 10.0 mi NW 11.5 mph 21.9 mph N/A   Mostly Cloudy
3:52 PM 69.8 °F - 28.4 °F 21% 30.11 in 10.0 mi NNW 15.0 mph 20.7 mph N/A   Scattered Clouds
4:52 PM 64.0 °F - 30.9 °F 29% 30.13 in 10.0 mi NNW 27.6 mph 33.4 mph N/A   Mostly Cloudy
5:52 PM 64.9 °F - 32.0 °F 29% 30.11 in 10.0 mi North 12.7 mph - N/A   Mostly Cloudy
6:52 PM 62.1 °F - 35.1 °F 37% 30.13 in 10.0 mi North 23.0 mph 31.1 mph N/A   Mostly Cloudy
7:52 PM 57.9 °F - 34.0 °F 41% 30.16 in 10.0 mi North 20.7 mph - N/A   Clear
8:52 PM 55.9 °F - 32.0 °F 40% 30.19 in 10.0 mi NNE 17.3 mph 24.2 mph N/A   Mostly Cloudy
9:52 PM 53.6 °F - 28.4 °F 38% 30.21 in 10.0 mi North 18.4 mph - N/A   Clear
10:52 PM 48.9 °F - 28.9 °F 46% 30.24 in 10.0 mi NNE 17.3 mph 24.2 mph N/A   Clear
11:52 PM 46.0 °F 39.9 °F 28.9 °F 51% 30.25 in 10.0 mi NNE 13.8 mph - N/A   Clear